Home   Weather   Modi'in-Maccabim-Re'ut   Past weeks

Flag for Israel Past Weather in Modi'in-Maccabim-Re'ut, Israel — Yesterday and Last 2 Weeks

Now
61 °F

Sunny.


Feels Like: 61 °F
Forecast: 46 / 64 °F
Wind: 9 mph from West

Location: Ben Gurion International Airport

Current Time: Feb 22, 2017 at 1:09:41 pm

Latest Report: Feb 22, 2017 at 12:20 pm


Visibility: 10 mi

Pressure: 30.01 "Hg

Humidity: 48%

Dew Point: 41 °F

Location of Modi'in-Maccabim-Re'utLocation

Past Weather in Modi'in-Maccabim-Re'ut — Graph

°F

Modi'in-Maccabim-Re'ut Temperature Yesterday

Maximum temperature yesterday: 64 °F (at 11:20 am)
Minimum temperature yesterday: 45 °F (at 3:50 am)
Average temperature yesterday: 55 °F

High & Low Weather Summary for the Past Weeks

 TemperatureHumidityPressure
High77 °F (Feb 7, 1:20 pm)94% (Feb 9, 12:20 am)30.39 "Hg (Feb 9, 12:20 am)
Low39 °F (Feb 19, 5:50 am)13% (Feb 7, 1:20 pm)29.83 "Hg (Feb 8, 2:50 am)
Average55 °F66%30.08 "Hg
* Reported Feb 7 11:20 am — Feb 22 11:50 am, Modi'in-Maccabim-Re'ut, Weather by CustomWeather, © 2017

Note: Actual official high and low records may vary slightly from our data, if they occured in-between our weather recording intervals... More about our weather records

Advertising

Modi'in-Maccabim-Re'ut Weather History for the Previous 24 Hours

Scroll right to see more
 ConditionsComfort  
Time TempWeatherWind HumidityBarometerVisibility
11:50 am
Wed, Feb 22
61 °FSunny.8 mph48%30.01 "Hg10 mi
11:20 am61 °FSunny.8 mph52%30.01 "Hg10 mi
10:50 am61 °FSunny.8 mph48%30.01 "Hg10 mi
10:20 am61 °FSunny.3 mph45%30.01 "Hg10 mi
9:50 am61 °FSunny.7 mph42%30.01 "Hg10 mi
9:20 am57 °FSunny.2 mph63%30.04 "Hg10 mi
8:50 am54 °FSunny.1 mph67%30.04 "Hg10 mi
8:20 am50 °FSunny.2 mph71%30.04 "Hg10 mi
7:50 am48 °FSunny.2 mph71%30.04 "Hg10 mi
7:20 am46 °FSunny.2 mph76%30.04 "Hg10 mi
6:50 am45 °FSunny.3 mph81%30.04 "Hg10 mi
6:20 am43 °FSunny.3 mph87%30.04 "Hg10 mi
5:50 am45 °FClear.3 mph81%30.04 "Hg10 mi
5:20 am43 °FClear.3 mph87%30.04 "Hg10 mi
4:50 am45 °FClear.1 mph87%30.04 "Hg10 mi
4:20 am45 °FClear.1 mph87%30.04 "Hg10 mi
3:50 am46 °FClear.5 mph82%30.04 "Hg10 mi
3:20 am46 °FClear.3 mph82%30.04 "Hg10 mi
2:50 am46 °FClear.1 mph82%30.04 "Hg10 mi
2:20 am46 °FClear.1 mph82%30.04 "Hg10 mi
1:50 am46 °FClear.5 mph87%30.04 "Hg10 mi
1:20 am48 °FClear.5 mph82%30.07 "Hg10 mi
12:50 am48 °FClear.3 mph82%30.07 "Hg10 mi
12:20 am48 °FClear.3 mph82%30.07 "Hg10 mi
11:50 pm
Tue, Feb 21
50 °FClear.6 mph76%30.07 "Hg10 mi
11:20 pm48 °FClear.1 mph87%30.07 "Hg10 mi
10:50 pm50 °FClear.1 mph82%30.09 "Hg10 mi
10:20 pm50 °FClear.3 mph82%30.09 "Hg10 mi
9:50 pm52 °FClear.3 mph77%30.09 "Hg10 mi
9:20 pm54 °FClear.1 mph72%30.09 "Hg10 mi
8:50 pm54 °FClear.5 mph72%30.09 "Hg10 mi
8:20 pm55 °FClear.3 mph67%30.09 "Hg10 mi
7:50 pm55 °FClear.3 mph67%30.09 "Hg10 mi
7:20 pm59 °FClear.5 mph55%30.09 "Hg10 mi
6:50 pm59 °FClear.5 mph59%30.09 "Hg10 mi
6:20 pm59 °FClear.5 mph59%30.09 "Hg10 mi
5:50 pm59 °FClear.8 mph59%30.07 "Hg10 mi
5:20 pm61 °FSunny.8 mph59%30.07 "Hg10 mi
4:50 pm61 °FSunny.9 mph55%30.07 "Hg10 mi
4:20 pm61 °FPassing clouds.12 mph52%30.07 "HgN/A
3:50 pm63 °FPassing clouds.10 mph49%30.07 "HgN/A
3:20 pm63 °FPassing clouds.10 mph49%30.07 "HgN/A
2:50 pm63 °FPassing clouds.10 mph49%30.07 "HgN/A
2:20 pm63 °FPassing clouds.12 mph49%30.07 "HgN/A
1:50 pm63 °FScattered clouds.12 mph49%30.07 "HgN/A
1:20 pm63 °FPassing clouds.12 mph49%30.07 "HgN/A
Weather by CustomWeather, © 2017

See weather overviewHow to use our weather pages